Location: Unspecified
(0.0000°N, 0.0000°E)
Time: 02:48:20
(UTC-05:00)

Cosmos 2058 - Visible Passes

Search period start: 17 October 2017 00:00
Search period end: 27 October 2017 00:00
Orbit: 564 x 584 km, 82.5° (Epoch: 16 October)

Date Brightness Start Highest point End Pass type
(mag) Time Alt. Az. Time Alt. Az. Time Alt. Az.
17 Oct 3.4 14:01:27 10° NNW 14:05:29 58° W 14:09:33 10° S visible
18 Oct 4.3 14:04:55 10° NNW 14:08:45 38° W 14:12:35 10° SSW visible
19 Oct 5.1 14:08:33 10° NW 14:12:01 26° W 14:15:29 10° SSW visible
20 Oct 5.8 14:12:25 10° NW 14:15:16 18° W 14:18:08 10° SW visible
21 Oct 6.3 14:16:45 10° WNW 14:18:32 12° W 14:20:18 10° WSW visible
